Location: Chervonnoye
(48.6000°N, 34.4000°E)
Time: 21:22:20
(UTC+00:00)

RS-44 - Pass Details

Date: 05 December 2021
Orbit: 1175 x 1510 km, 82.5° (Epoch: 19 January)

Event Time Altitude Azimuth Distance (km) Brightness Sun altitude
Rises 02:02:12 0° 355° (N) 4,144 ? -31.4°
Reaches altitude 10° 02:05:43 10° 12° (NNE) 3,217 ? -30.8°
Maximum altitude 02:11:14 21° 59° (ENE) 2,538 ? -29.9°
Drops below altitude 10° 02:16:58 10° 106° (ESE) 3,374 ? -29.0°
Sets 02:20:44 0° 122° (ESE) 4,404 ? -28.4°
